User: anonymous
Location: The Jewett Observatory
(46.7288°N, 117.1525°W)
Time: 18:31:26
(UTC-07:00)
Language:

Cosmos 1633 - Orbit

View from above orbital plane
View from above orbital plane
View from above satellite
View from above satellite

Ground track
Ground track

The orbit data is extracted from the following two-line orbital elements,

1 15592U 85020A   14258.74847697  .00006432  00000-0  30140-3 0  5429
2 15592 082.5392 241.7725 0019521 114.2109 301.3198 15.19344060611036
Epoch (UTC): 15 September 2014 17:57:48
Eccentricity: 0.0019521
inclination: 82.5392°
perigee height: 494 km
apogee height: 521 km
right ascension of ascending node: 241.7725°
argument of perigee: 114.2109°
revolutions per day: 15.19344060
mean anomaly at epoch: 301.3198°
orbit number at epoch: 61103

The dashed part of the orbit path shows where the satellite is in the earth's shadow,  

DLR